RYR8EG LEIB-LEPA

Flight info

Callsign RYR8EG
Flight time 0h 30m
Altitude 8000
Route LAMPA
Aircraft B38M/M-SDE1FGHILORVWXY/HB1

Departure

Time 2026-05-04 19:48
Airport Ibiza Airport (LEIB)

Arrival

Time 2026-05-04 20:18
Airport Palma de Mallorca Airport (LEPA)
Time Latitude Longitude Altitude Speed Heading
2026-05-04 19:25 38.87434 1.36585 11 ft 0 kts 13°
2026-05-04 19:43 38.87436 1.36586 -16 ft 0 kts 28°
2026-05-04 19:43 38.87438 1.36593 12 ft 2 kts 66°
2026-05-04 19:43 38.87423 1.36639 12 ft 10 kts 134°
2026-05-04 19:43 38.87378 1.36737 12 ft 16 kts 114°
2026-05-04 19:44 38.87307 1.36857 11 ft 11 kts 124°
2026-05-04 19:44 38.87314 1.36939 12 ft 12 kts 63°
2026-05-04 19:44 38.87363 1.37054 11 ft 17 kts 61°
2026-05-04 19:44 38.87428 1.37212 11 ft 23 kts 63°
2026-05-04 19:45 38.87509 1.37409 12 ft 27 kts 62°
2026-05-04 19:45 38.87606 1.37644 11 ft 32 kts 62°
2026-05-04 19:45 38.87711 1.37896 12 ft 29 kts 62°
2026-05-04 19:45 38.87798 1.38103 12 ft 25 kts 62°
2026-05-04 19:46 38.87886 1.38317 12 ft 30 kts 62°
2026-05-04 19:46 38.87985 1.38554 12 ft 31 kts 61°
2026-05-04 19:46 38.88026 1.38695 12 ft 10 kts 106°
2026-05-04 19:46 38.88001 1.38721 12 ft 3 kts 184°
2026-05-04 19:47 38.87960 1.38718 13 ft 9 kts 183°
2026-05-04 19:47 38.87869 1.38695 15 ft 15 kts 219°
2026-05-04 19:47 38.87809 1.38574 15 ft 20 kts 242°
2026-05-04 19:47 38.87675 1.38253 16 ft 77 kts 242°
2026-05-04 19:48 38.87285 1.37346 28 ft 148 kts 245°
2026-05-04 19:48 38.86779 1.36088 693 ft 161 kts 242°
2026-05-04 19:48 38.86266 1.34905 1733 ft 158 kts 229°
2026-05-04 19:48 38.85402 1.33795 2487 ft 190 kts 227°
2026-05-04 19:49 38.84479 1.32537 3643 ft 196 kts 229°
2026-05-04 19:49 38.83537 1.31241 4854 ft 202 kts 230°
2026-05-04 19:49 38.82558 1.29890 5750 ft 212 kts 231°
2026-05-04 19:49 38.81535 1.28491 5979 ft 218 kts 228°
2026-05-04 19:50 38.80245 1.27551 5975 ft 222 kts 198°
2026-05-04 19:50 38.78677 1.27510 6033 ft 232 kts 175°
2026-05-04 19:50 38.77079 1.27846 6042 ft 233 kts 175°
2026-05-04 19:50 38.75477 1.28194 6023 ft 233 kts 175°
2026-05-04 19:51 38.73884 1.28549 6010 ft 233 kts 174°
2026-05-04 19:51 38.72289 1.28910 6003 ft 233 kts 175°
2026-05-04 19:51 38.70691 1.29271 5995 ft 233 kts 175°
2026-05-04 19:51 38.69096 1.29635 5989 ft 233 kts 174°
2026-05-04 19:52 38.67518 1.29997 5993 ft 233 kts 174°
2026-05-04 19:52 38.65894 1.30371 5994 ft 245 kts 175°
2026-05-04 19:52 38.64162 1.30765 5969 ft 262 kts 174°
2026-05-04 19:52 38.62325 1.31188 5969 ft 272 kts 175°
2026-05-04 19:53 38.60451 1.31648 5970 ft 278 kts 170°
2026-05-04 19:53 38.58766 1.32899 5954 ft 289 kts 136°
2026-05-04 19:53 38.57874 1.35194 5981 ft 296 kts 101°
2026-05-04 19:53 38.57676 1.37822 5987 ft 296 kts 97°
2026-05-04 19:54 38.57420 1.40415 5987 ft 295 kts 98°
2026-05-04 19:54 38.57131 1.42982 5992 ft 296 kts 99°
2026-05-04 19:54 38.56822 1.45594 5987 ft 298 kts 99°
2026-05-04 19:54 38.56503 1.48202 5999 ft 296 kts 99°
2026-05-04 19:55 38.56179 1.50789 5994 ft 295 kts 100°
2026-05-04 19:55 38.55851 1.53379 5986 ft 296 kts 101°
2026-05-04 19:55 38.55511 1.56035 5984 ft 311 kts 101°
2026-05-04 19:55 38.55404 1.58820 5961 ft 320 kts 82°
2026-05-04 19:56 38.56244 1.61468 5963 ft 330 kts 53°
2026-05-04 19:56 38.57830 1.63609 5967 ft 345 kts 42°
2026-05-04 19:56 38.59573 1.65792 5947 ft 359 kts 43°
2026-05-04 19:56 38.61370 1.68080 5952 ft 367 kts 44°
2026-05-04 19:57 38.63188 1.70413 5967 ft 372 kts 44°
2026-05-04 19:57 38.65000 1.72746 5994 ft 371 kts 44°
2026-05-04 19:57 38.66816 1.75091 5999 ft 370 kts 44°
2026-05-04 19:57 38.68618 1.77420 5990 ft 368 kts 44°
2026-05-04 19:58 38.70427 1.79759 5993 ft 369 kts 44°
2026-05-04 19:58 38.72228 1.82090 5992 ft 369 kts 43°
2026-05-04 19:58 38.74033 1.84428 5996 ft 369 kts 44°
2026-05-04 19:58 38.75805 1.86726 5993 ft 368 kts 43°
2026-05-04 19:59 38.77606 1.89062 5996 ft 369 kts 44°
2026-05-04 19:59 38.79406 1.91398 5993 ft 369 kts 44°
2026-05-04 19:59 38.81086 1.93891 5992 ft 375 kts 52°
2026-05-04 19:59 38.82657 1.96565 5998 ft 377 kts 52°
2026-05-04 20:00 38.84250 1.99233 5999 ft 375 kts 51°
2026-05-04 20:00 38.85845 2.01878 6001 ft 376 kts 51°
2026-05-04 20:00 38.87458 2.04535 6012 ft 377 kts 51°
2026-05-04 20:00 38.89057 2.07166 6011 ft 372 kts 51°
2026-05-04 20:01 38.90624 2.09743 6004 ft 370 kts 51°
2026-05-04 20:01 38.92206 2.12349 6004 ft 371 kts 51°
2026-05-04 20:01 38.93789 2.14956 5996 ft 370 kts 51°
2026-05-04 20:01 38.95369 2.17559 5996 ft 370 kts 51°
2026-05-04 20:02 38.96946 2.20160 5999 ft 369 kts 51°
2026-05-04 20:02 38.98523 2.22765 5993 ft 370 kts 51°
2026-05-04 20:02 39.00099 2.25369 6007 ft 369 kts 51°
2026-05-04 20:02 39.01675 2.27976 5996 ft 369 kts 51°
2026-05-04 20:03 39.03251 2.30591 5992 ft 371 kts 51°
2026-05-04 20:03 39.04834 2.33232 6004 ft 373 kts 51°
2026-05-04 20:03 39.06399 2.35842 5995 ft 374 kts 51°
2026-05-04 20:03 39.07982 2.38484 6000 ft 373 kts 52°
2026-05-04 20:04 39.09568 2.41136 6001 ft 374 kts 51°
2026-05-04 20:04 39.11150 2.43781 6010 ft 370 kts 51°
2026-05-04 20:04 39.12709 2.46390 6002 ft 369 kts 51°
2026-05-04 20:04 39.14276 2.49013 6008 ft 369 kts 51°
2026-05-04 20:05 39.15885 2.51586 5987 ft 369 kts 44°
2026-05-04 20:05 39.17932 2.53533 6014 ft 366 kts 31°
2026-05-04 20:05 39.20057 2.55344 6004 ft 366 kts 32°
2026-05-04 20:05 39.22143 2.57147 6006 ft 366 kts 32°
2026-05-04 20:06 39.24258 2.58985 6008 ft 367 kts 32°
2026-05-04 20:06 39.26374 2.60828 6009 ft 366 kts 32°
2026-05-04 20:06 39.28488 2.62672 6009 ft 367 kts 32°
2026-05-04 20:06 39.30596 2.64512 6009 ft 366 kts 32°
2026-05-04 20:07 39.32691 2.66344 6020 ft 366 kts 32°
2026-05-04 20:07 39.34793 2.68183 6008 ft 367 kts 32°
2026-05-04 20:07 39.36922 2.70047 6005 ft 370 kts 32°
2026-05-04 20:07 39.39025 2.71889 6026 ft 370 kts 32°
2026-05-04 20:08 39.41153 2.73754 6024 ft 370 kts 32°
2026-05-04 20:08 39.43203 2.75761 5999 ft 371 kts 44°
2026-05-04 20:08 39.44621 2.78542 6023 ft 373 kts 65°
2026-05-04 20:08 39.45751 2.81575 6010 ft 374 kts 63°
2026-05-04 20:09 39.46921 2.84566 6004 ft 367 kts 62°
2026-05-04 20:09 39.48049 2.87425 6045 ft 345 kts 62°
2026-05-04 20:09 39.49108 2.90103 6035 ft 327 kts 62°
2026-05-04 20:09 39.50123 2.92647 6036 ft 310 kts 62°
2026-05-04 20:10 39.51083 2.95052 6025 ft 294 kts 62°
2026-05-04 20:10 39.51986 2.97321 5868 ft 285 kts 62°
2026-05-04 20:10 39.52905 2.99670 5213 ft 298 kts 63°
2026-05-04 20:10 39.53852 3.02087 4722 ft 303 kts 62°
2026-05-04 20:11 39.55168 3.04142 4466 ft 292 kts 31°
2026-05-04 20:11 39.56982 3.04959 4379 ft 268 kts 357°
2026-05-04 20:11 39.58672 3.04410 4296 ft 240 kts 323°
2026-05-04 20:11 39.59919 3.03114 4220 ft 222 kts 310°
2026-05-04 20:12 39.61079 3.01842 4123 ft 214 kts 315°
2026-05-04 20:12 39.62196 3.00654 3988 ft 201 kts 311°
2026-05-04 20:12 39.63170 2.99441 3781 ft 187 kts 306°
2026-05-04 20:12 39.64026 2.98217 3510 ft 180 kts 304°
2026-05-04 20:13 39.64566 2.96876 3180 ft 164 kts 275°
2026-05-04 20:13 39.64475 2.95530 2960 ft 142 kts 245°
2026-05-04 20:13 39.64040 2.94433 2749 ft 133 kts 242°
2026-05-04 20:13 39.63597 2.93389 2556 ft 136 kts 240°
2026-05-04 20:14 39.63116 2.92308 2436 ft 141 kts 240°
2026-05-04 20:14 39.62607 2.91192 2435 ft 145 kts 239°
2026-05-04 20:14 39.62083 2.90064 2406 ft 146 kts 240°
2026-05-04 20:14 39.61571 2.88967 2224 ft 137 kts 239°
2026-05-04 20:15 39.61087 2.87936 2070 ft 131 kts 239°
2026-05-04 20:15 39.60620 2.86942 1914 ft 130 kts 237°
2026-05-04 20:15 39.60155 2.85952 1750 ft 124 kts 237°
2026-05-04 20:15 39.59725 2.85040 1629 ft 117 kts 236°
2026-05-04 20:16 39.59309 2.84158 1444 ft 113 kts 238°
2026-05-04 20:16 39.58903 2.83296 1295 ft 111 kts 233°
2026-05-04 20:16 39.58498 2.82470 1175 ft 107 kts 234°
2026-05-04 20:16 39.58088 2.81636 1054 ft 115 kts 239°
2026-05-04 20:17 39.57687 2.80713 1007 ft 120 kts 236°
2026-05-04 20:17 39.57238 2.79764 780 ft 125 kts 234°
2026-05-04 20:17 39.56780 2.78791 578 ft 125 kts 238°
2026-05-04 20:17 39.56346 2.77859 384 ft 120 kts 236°
2026-05-04 20:18 39.55919 2.76955 220 ft 117 kts 237°
2026-05-04 20:18 39.55495 2.76061 59 ft 117 kts 238°
2026-05-04 20:18 39.55110 2.75248 40 ft 84 kts 239°
2026-05-04 20:18 39.54876 2.74752 41 ft 40 kts 238°
2026-05-04 20:19 39.54812 2.74507 41 ft 20 kts 259°
2026-05-04 20:19 39.54804 2.74336 41 ft 13 kts 271°
2026-05-04 20:19 39.54803 2.74290 41 ft 0 kts 269°
2026-05-04 20:20 39.54803 2.74289 41 ft 1 kts 269°
2026-05-04 20:20 39.54803 2.74254 41 ft 7 kts 269°
2026-05-04 20:20 39.54812 2.74168 41 ft 12 kts 292°
2026-05-04 20:20 39.54886 2.74079 40 ft 17 kts 328°
2026-05-04 20:21 39.54971 2.74012 41 ft 11 kts 329°
2026-05-04 20:21 39.55053 2.73948 41 ft 16 kts 328°
2026-05-04 20:21 39.55301 2.73751 41 ft 24 kts 328°
2026-05-04 20:22 39.55439 2.73643 41 ft 16 kts 330°
2026-05-04 20:22 39.55493 2.73600 40 ft 6 kts 319°
2026-05-04 20:22 39.55487 2.73538 41 ft 10 kts 240°
2026-05-04 20:22 39.55434 2.73424 39 ft 19 kts 239°
2026-05-04 20:23 39.55354 2.73255 41 ft 25 kts 239°
2026-05-04 20:23 39.55259 2.73057 39 ft 18 kts 239°
2026-05-04 20:23 39.55207 2.72946 41 ft 17 kts 239°
2026-05-04 20:23 39.55160 2.72848 39 ft 5 kts 230°
2026-05-04 20:24 39.55111 2.72835 41 ft 9 kts 182°
2026-05-04 20:24 39.55086 2.72833 41 ft 0 kts 182°
2026-05-04 20:24 39.55081 2.72833 41 ft 2 kts 181°
2026-05-04 20:24 39.55080 2.72833 41 ft 0 kts 181°